Flag for Germany Weather past 2 weeks in Landshut, Bavaria, Germany

Now
59 °F

Overcast.


Feels Like: 59 °F
Forecast: 49 / 71 °F
Wind: 2 mph from East

Location: Muenchen Flughafen

Current Time: Apr 26, 2015 at 10:26:07 PM

Latest Report: Apr 26, 2015 at 10:00 PM


Visibility: 44 mi

Pressure: 29.70 "Hg

Humidity: 67%

Dew point: 48 °F

Location of LandshutLocation

Historic Weather in Landshut — Graph

°F

Landshut temperature yesterday

Maximum temperature yesterday: 67 °F (at 3:00 PM)
Minimum temperature yesterday: 34 °F (at 6:00 AM)
Average temperature yesterday: 53 °F

Past Weeks' High & Low Weather Summary

 TemperatureHumidityPressure
High73 °F (Apr 15, 5:00 PM)98% (Apr 24, 5:00 AM)30.47 "Hg (Apr 24, 5:00 AM)
Low29 °F (Apr 24, 6:00 AM)23% (Apr 15, 6:00 PM)29.68 "Hg (Apr 26, 8:00 PM)
Average52 °F63%30.15 "Hg
* Reported Apr 11 9:00 PM — Apr 26 9:00 PM, Landshut, Weather by CustomWeather, © 2015

Note: Actual official high and low records may vary slightly from our data, if they occured in-between our weather recording intervals... More about our weather records

Advertising

Landshut weather history for previous 24 hours

 ConditionsComfort  
Time TempWeatherWind HumidityBarometerVisibility
9:00 PM
Sun, Apr 26
61 °FOvercast.2 mph64%29.68 "Hg47 mi
8:00 PM63 °FOvercast.2 mph56%29.68 "Hg47 mi
7:00 PM65 °FOvercast.2 mph53%29.69 "Hg47 mi
6:00 PM66 °FOvercast.1 mph51%29.70 "Hg47 mi
5:00 PM68 °FOvercast.1 mph46%29.70 "Hg47 mi
4:00 PM67 °FOvercast.3 mph48%29.73 "Hg47 mi
3:00 PM67 °FPartly sunny.3 mph46%29.76 "Hg47 mi
2:00 PM65 °FPartly sunny.3 mph53%29.78 "Hg47 mi
1:00 PM64 °FPartly sunny.3 mph60%29.80 "Hg47 mi
12:00 PM62 °FScattered clouds.2 mph62%29.83 "Hg47 mi
11:00 AM60 °FScattered clouds.3 mph70%29.85 "Hg47 mi
10:00 AM58 °FScattered clouds.5 mph74%29.85 "Hg47 mi
9:00 AM56 °FScattered clouds.5 mph79%29.87 "Hg25 mi
8:00 AM53 °FScattered clouds.2 mph88%29.88 "Hg22 mi
7:00 AM52 °FPartly sunny.3 mph92%29.88 "Hg19 mi
6:00 AM52 °FLight rain. Overcast.3 mph91%29.87 "Hg12 mi
5:00 AM52 °FLight rain. Overcast.5 mph93%29.88 "Hg12 mi
4:00 AM53 °FLight rain. Overcast.6 mph92%29.90 "Hg10 mi
3:00 AM54 °FLight rain. Overcast.6 mph85%29.90 "Hg7 mi
2:00 AM53 °FLight rain. Overcast.2 mph96%29.89 "Hg7 mi
1:00 AM53 °FOvercast.1 mph94%29.89 "Hg9 mi
12:00 AM53 °FOvercast.2 mph95%29.89 "Hg11 mi
11:00 PM
Sat, Apr 25
54 °FOvercast.3 mph95%29.90 "Hg11 mi
10:00 PM54 °FRain. Overcast.2 mph94%29.91 "Hg4 mi
Weather by CustomWeather, © 2015

See weather overviewHow to use our weather pages